CZ-6A DEB

Satellite information

Favourite Embed

Satellite Type and Status

DEBRISIN ORBIT

Key statistics

Satellite CZ-6A DEB at a glance.

Uptime

1129

Days in orbit

Revolutions

≈ 14.7

Per day

Orbit

SSO

Sun Synchronous Orbit

Inclination

98.8

Latest

Satellite identification and parameters

Extended collection of information and parameters for CZ-6A DEB.

Object identification

Identified? True

Debris? True

Object name: CZ-6A DEB

International designator: 2022-151AM

Object number (NORAD): 54294

Object ID (CCSDS): 54294

Country: PEOPLES REPUBLIC OF CHINA (PRC)

Current information (Y/N): Y

RCS size: SMALL

Orbital parameters

Period: 97.974 minutes

Inclination: 98.7557 deg

SMA: 7039.925 km

Apoapsis: 745.858 km

Periapsis: 577.723 km

RAAN: 73.8397 deg

Eccentricy: 0.01194152

Argument of periapsis: 81.4324 deg

Mean anomaly: 280.0389 deg

Mean motion: 14.69774382 rev/day

Mean motion (dot): 0.00010861 rev/day2

B* drag term: 0.0016381654 1/REarth

Two-line elements (TLE)

Creation date: Dec. 12, 2025, 10:14 a.m.

Reference frame: TEME

Reference center: EARTH

Epoch: Dec. 12, 2025, 5:28 a.m. UTC

TLE line 0: 0 CZ-6A DEB

TLE line 1: 1 54294U 22151AM 25346.22835998 .00010861 00000-0 16382-2 0 9999

TLE line 2: 2 54294 98.7557 73.8397 0119415 81.4324 280.0389 14.69774382163547

Live tracking on map

Real-time ground track for satellite CZ-6A DEB.

In-orbit conjunctions

A list of the most updated potential collisions computed for object CZ-6A DEB.

Target Orbit TCA Probability of collision Miss distance Type
CZ-2C R/B SSO 2025-11-09 15:54:07 0.0001033117 913.0 (m) ROCKET BODY
SL-14 R/B LEO 2024-09-01 12:45:22 0.0001177851 861.0 (m) ROCKET BODY

Associated space launch

Chinese satellite reported for atmospheric/ocean/environmental/spatial parameter research purposes, details TBD.

CZ-6A DEB was lifted into orbit during the mission ‘Long March 6A | Yunhai 3’, on board a Long March 6A space rocket.

The launch took place on Nov. 11, 2022, 10:52 p.m. from Launch Complex 9A.

For more information about the launch, click the button.

Launch to space Long March 6A | Yunhai 3
Long March 6A | Yunhai 3

Agency: N/A

Status: Launch Successful

Launch date: Nov. 11, 2022, 10:52 p.m. UTC

Rocket: Long March 6A

Launch pad: Launch Complex 9A

Location: Taiyuan Satellite Launch Center, People's Republic of China

...

Latest news about this satellite

There are no fresh news available about this satellite. Check back as we update our databases every day.


Newsletter sign-up

Weekly statistics, charts and insights to help you stay on top of the space industry.